Weather History for Phnom Penh, Cambodia

Change the Weather History Date:

Saturday, January 5, 2013

  Actual Average Record
Temperature  
Mean Temperature 80 °F -  
Max Temperature 87 °F 86 °F 93 °F (2000)
Min Temperature 72 °F 72 °F 69 °F (2002)
Cooling Degree Days 14    
Growing Degree Days 30 (Base 50)    
Moisture  
Dew Point 65 °F    
Average Humidity 58    
Maximum Humidity 74    
Minimum Humidity 45    
Precipitation  
Precipitation 0.00 in - - ()
Sea Level Pressure  
Sea Level Pressure 29.79 in    
Wind  
Wind Speed 7 mph ()    
Max Wind Speed 15 mph    
Max Gust Speed -    
Visibility 5.9 miles    
Events      
Averages and records for this station are not official NWS values.
T = Trace of Precipitation, MM = Missing Value Source: Averaged Metar Reports

Daily Weather History Graph

Daily Weather History Graph

Search for Another Location

Airport:

Trip Planner

Search our weather history database for the weather conditions in past years. The results will help you decide how hot, cold, wet, or windy it might be!

Date:

Astronomy

Jan. 05, 2013 Rise Set
Actual Time 6:21 AM ICT 5:50 PM ICT
Civil Twilight 5:58 AM ICT 6:13 PM ICT
Nautical Twilight 5:32 AM ICT 6:39 PM ICT
Astronomical Twilight 5:06 AM ICT 7:05 PM ICT
Moon No Moon Rise 11:45 AM ICT (1/5)
Length of Visible Light 12h 14m
Length of Day
11h 28m
Waning Gibbous, 50% of the Moon is Illuminated
Jan 5
Waning Gibbous
Jan 12
New
Jan 19
First Quarter
Jan 27
Full
Feb 3
Last Quarter

Hourly Weather History & Observations

Time (ICT) Temp. Heat Index Dew Point Humidity Pressure Visibility Wind Dir Wind Speed Gust Speed Precip Events Conditions
12:30 AM 77.0 °F - 66.2 °F 69% 29.80 in 5.6 mi NNW 4.6 mph - N/A   Unknown
1:00 AM 75.2 °F - 66.2 °F 73% 29.80 in 5.6 mi NNE 5.8 mph - N/A   Unknown
6:00 AM 73.4 °F - 64.4 °F 73% 29.77 in 5.6 mi North 5.8 mph - N/A   Scattered Clouds
6:30 AM 73.4 °F - 64.4 °F 73% 29.80 in 5.6 mi North 5.8 mph - N/A   Scattered Clouds
7:00 AM 73 °F - 64 °F 67% 29.85 in 6 mi North 4.5 mph - -   Partly Cloudy
7:00 AM 73.4 °F - 64.4 °F 73% 29.80 in 5.6 mi North 4.6 mph - N/A   Unknown
8:00 AM 77.0 °F - 64.4 °F 65% 29.83 in 5.6 mi North 8.1 mph - N/A   Unknown
8:30 AM 78.8 °F - 62.6 °F 57% 29.86 in - North 12.7 mph - N/A   Clear
9:00 AM 78.8 °F - 62.6 °F 57% 29.86 in - North 11.5 mph - N/A   Clear
9:30 AM 80.6 °F 81.8 °F 62.6 °F 54% 29.86 in - NNE 8.1 mph - N/A   Clear
10:00 AM 80.6 °F 82.3 °F 64.4 °F 58% 29.86 in - North 10.4 mph - N/A   Clear
10:30 AM 82.4 °F 83.4 °F 62.6 °F 51% 29.83 in - NNE 10.4 mph - N/A   Clear
11:00 AM 82.4 °F 83.4 °F 62.6 °F 51% 29.83 in - North 15.0 mph - N/A   Clear
11:30 AM 82.4 °F 83.4 °F 62.6 °F 51% 29.83 in - North 10.4 mph - N/A   Clear
12:00 PM 82.4 °F 83.9 °F 64.4 °F 54% 29.83 in 6.2 mi NNW 11.5 mph - N/A   Partly Cloudy
12:30 PM 84.2 °F 85.6 °F 64.4 °F 51% 29.80 in 6.2 mi NNW 9.2 mph - N/A   Partly Cloudy
1:00 PM 86.0 °F 87.3 °F 64.4 °F 48% 29.77 in 6.2 mi North 10.4 mph - N/A   Partly Cloudy
1:30 PM 87.8 °F 89.4 °F 64.4 °F 46% 29.77 in 6.2 mi North 11.5 mph - N/A   Partly Cloudy
2:00 PM 86.0 °F 87.3 °F 64.4 °F 48% 29.74 in 6.2 mi North 11.5 mph - N/A   Partly Cloudy
2:30 PM 84.2 °F 85.6 °F 64.4 °F 51% 29.74 in 6.2 mi North 10.4 mph - N/A   Partly Cloudy
3:00 PM 84.2 °F 86.6 °F 66.2 °F 55% 29.74 in 6.2 mi North 11.5 mph - N/A   Partly Cloudy
3:30 PM 86.0 °F 88.2 °F 66.2 °F 51% 29.74 in 6.2 mi NNW 13.8 mph - N/A   Partly Cloudy
4:00 PM 86.0 °F 86.6 °F 62.6 °F 45% 29.74 in 6.2 mi North 8.1 mph - N/A   Partly Cloudy
4:30 PM 86.0 °F 86.6 °F 62.6 °F 45% 29.74 in 6.2 mi North 10.4 mph - N/A   Partly Cloudy
5:00 PM 86.0 °F 87.3 °F 64.4 °F 48% 29.74 in 6.2 mi North 8.1 mph - N/A   Scattered Clouds
5:30 PM 86.0 °F 87.3 °F 64.4 °F 48% 29.77 in 6.2 mi North 6.9 mph - N/A   Scattered Clouds
6:00 PM 84.2 °F 86.6 °F 66.2 °F 55% 29.77 in 5.6 mi North 4.6 mph - N/A   Scattered Clouds
6:30 PM 82.4 °F 83.9 °F 64.4 °F 54% 29.77 in 5.6 mi North 3.5 mph - N/A   Scattered Clouds
7:00 PM 82.4 °F 83.9 °F 64.4 °F 54% 29.77 in 5.6 mi North 3.5 mph - N/A   Scattered Clouds
7:30 PM 82.4 °F 83.9 °F 64.4 °F 54% 29.77 in 5.6 mi North 3.5 mph - N/A   Scattered Clouds
8:00 PM 82.4 °F 84.6 °F 66.2 °F 58% 29.77 in 5.6 mi NNW 3.5 mph - N/A   Scattered Clouds
8:30 PM 82.4 °F 85.4 °F 68.0 °F 62% 29.80 in 5.6 mi NE 4.6 mph - N/A   Scattered Clouds
9:00 PM 80.6 °F 83.2 °F 68.0 °F 65% 29.80 in 5.6 mi NNW 3.5 mph - N/A   Scattered Clouds
9:30 PM 78.8 °F - 68.0 °F 69% 29.80 in 5.6 mi North 3.5 mph - N/A   Scattered Clouds
10:00 PM 78.8 °F - 68.0 °F 69% 29.80 in 5.6 mi North 3.5 mph - N/A   Scattered Clouds
10:30 PM 78.8 °F - 69.8 °F 74% 29.80 in 5.6 mi NNW 3.5 mph - N/A   Scattered Clouds
11:00 PM 78.8 °F - 69.8 °F 74% 29.80 in 5.6 mi NNW 3.5 mph - N/A   Scattered Clouds